TimePST,TemperatureF,Dew PointF,Humidity,Sea Level PressureIn,VisibilityMPH,Wind Direction,Wind SpeedMPH,Gust SpeedMPH,PrecipitationIn,Events,Conditions,WindDirDegrees,DateUTC
12:53 AM,46.0,25.0,44,30.09,10.0,West,3.5,-,N/A,,Mostly Cloudy,260,2013-01-12 08:53:00
1:53 AM,46.9,25.0,42,30.10,10.0,Variable,3.5,-,N/A,,Overcast,0,2013-01-12 09:53:00
2:53 AM,46.9,21.9,37,30.09,10.0,NNW,5.8,-,N/A,,Partly Cloudy,330,2013-01-12 10:53:00
3:53 AM,46.0,23.0,40,30.09,10.0,West,5.8,-,N/A,,Clear,280,2013-01-12 11:53:00
4:53 AM,44.1,24.1,45,30.09,10.0,Calm,Calm,-,N/A,,Clear,0,2013-01-12 12:53:00
5:53 AM,43.0,23.0,45,30.11,10.0,Calm,Calm,-,N/A,,Clear,0,2013-01-12 13:53:00
6:53 AM,41.0,23.0,49,30.14,10.0,Calm,Calm,-,N/A,,Clear,0,2013-01-12 14:53:00
7:53 AM,45.0,23.0,42,30.16,10.0,Calm,Calm,-,N/A,,Clear,0,2013-01-12 15:53:00
8:53 AM,48.9,23.0,36,30.17,10.0,Calm,Calm,-,N/A,,Clear,0,2013-01-12 16:53:00
9:53 AM,50.0,19.9,31,30.18,10.0,Calm,Calm,-,N/A,,Clear,0,2013-01-12 17:53:00
10:53 AM,53.1,19.0,26,30.16,10.0,East,3.5,-,N/A,,Clear,100,2013-01-12 18:53:00
11:53 AM,54.0,18.0,24,30.14,10.0,Variable,3.5,-,N/A,,Clear,0,2013-01-12 19:53:00
12:53 PM,55.0,17.1,23,30.11,10.0,SW,3.5,-,N/A,,Clear,220,2013-01-12 20:53:00
1:53 PM,55.0,15.1,21,30.10,10.0,South,3.5,-,N/A,,Clear,190,2013-01-12 21:53:00
2:46 PM,55.4,21.2,26,30.09,1.2,WSW,9.2,-,N/A,,Clear,240,2013-01-12 22:46:00
2:53 PM,55.0,21.0,27,30.10,10.0,WSW,8.1,-,N/A,,Clear,240,2013-01-12 22:53:00
3:53 PM,55.0,24.1,30,30.09,10.0,WSW,9.2,-,N/A,,Clear,250,2013-01-12 23:53:00
5:53 PM,52.0,27.0,38,30.10,10.0,West,4.6,-,N/A,,Clear,280,2013-01-13 01:53:00
6:53 PM,51.1,25.0,36,30.11,10.0,WNW,3.5,-,N/A,,Clear,300,2013-01-13 02:53:00
7:53 PM,50.0,27.0,41,30.11,10.0,Calm,Calm,-,N/A,,Clear,0,2013-01-13 03:53:00
8:53 PM,48.0,26.1,42,30.11,10.0,Calm,Calm,-,N/A,,Clear,0,2013-01-13 04:53:00
9:53 PM,46.0,26.1,46,30.11,10.0,Calm,Calm,-,N/A,,Clear,0,2013-01-13 05:53:00
10:53 PM,45.0,26.1,48,30.12,10.0,Calm,Calm,-,N/A,,Clear,0,2013-01-13 06:53:00
11:53 PM,44.1,27.0,51,30.12,10.0,NNE,3.5,-,N/A,,Clear,30,2013-01-13 07:53:00